Location: Brachbach
(49.1847°N, 9.7240°E)
Time: 04:17:09
(UTC+00:00)

STARS - Pass Details

Date: 23 March 2026
Orbit: 575 x 588 km, 98.2° (Epoch: 15 April)

Event Time Altitude Azimuth Distance (km) Brightness Sun altitude
Rises 01:23:23 0° 16° (NNE) 2,800 ? -34.0°
Reaches altitude 10° 01:25:33 10° 18° (NNE) 1,897 ? -33.8°
Enters shadow 01:26:50 20° 22° (NNE) 1,381 ? -33.7°
